This is the latest recevied weather packets stored in our database for station/object N4ASP-13. If no packets are shown the sender has not sent any weather packets the latest 10 day(s).
| Time | Temp. | Humidity | Pressure | Rain* | Wind** | Luminosity | Snow |
|---|---|---|---|---|---|---|---|
| 1778008439 | 22.78° C | 44% | 1015 hPa | 0 mm | - | 1014 W/m² | - |
| 1778008379 | 22.78° C | 43% | 1014.9 hPa | 0 mm | - | 912 W/m² | - |
| 1778008318 | 23.33° C | 44% | 1014.9 hPa | 0 mm | - | 912 W/m² | - |
| 1778008256 | 23.33° C | 45% | 1015 hPa | 0 mm | - | 912 W/m² | - |
| 1778008197 | 23.33° C | 45% | 1015 hPa | 0 mm | - | 912 W/m² | - |
| 1778008136 | 23.33° C | 45% | 1015.1 hPa | 0 mm | - | 835 W/m² | - |
| 1778008074 | 23.33° C | 46% | 1015 hPa | 0 mm | - | 751 W/m² | - |
| 1778008013 | 23.33° C | 46% | 1015.1 hPa | 0 mm | - | 744 W/m² | - |
| 1778007946 | 23.33° C | 45% | 1015.1 hPa | 0 mm | - | 819 W/m² | - |
| 1778007827 | 22.78° C | 44% | 1015.3 hPa | 0 mm | - | 1028 W/m² | - |
| 1778007765 | 22.78° C | 44% | 1015.3 hPa | 0 mm | - | 1028 W/m² | - |
| 1778007702 | 22.78° C | 45% | 1015.3 hPa | 0 mm | - | 1085 W/m² | - |
| 1778007637 | 22.78° C | 44% | 1015.4 hPa | 0 mm | - | 1062 W/m² | - |
| 1778007577 | 22.78° C | 45% | 1015.1 hPa | 0 mm | - | 1062 W/m² | - |
| 1778007517 | 22.78° C | 46% | 1015.3 hPa | 0 mm | - | 1062 W/m² | - |
| 1778007456 | 22.78° C | 45% | 1015.3 hPa | 0 mm | - | 1062 W/m² | - |
| 1778007397 | 22.78° C | 47% | 1015.3 hPa | 0 mm | - | 1144 W/m² | - |
| 1778007331 | 22.78° C | 47% | 1015.4 hPa | 0 mm | - | 1011 W/m² | - |
| 1778007273 | 22.78° C | 47% | 1015.5 hPa | 0 mm | - | 854 W/m² | - |
| 1778007213 | 22.78° C | 45% | 1015.3 hPa | 0 mm | - | 854 W/m² | - |
| 1778007153 | 22.78° C | 45% | 1015.5 hPa | 0 mm | - | 341 W/m² | - |
| 1778007091 | 22.78° C | 45% | 1015.5 hPa | 0 mm | - | 341 W/m² | - |
| 1778007026 | 23.33° C | 45% | 1015.4 hPa | 0 mm | - | 341 W/m² | - |
| 1778006966 | 23.33° C | 45% | 1015.4 hPa | 0 mm | - | 427 W/m² | - |
| 1778006906 | 23.33° C | 44% | 1015.5 hPa | 0 mm | - | 427 W/m² | - |
* Rain latest hour (hover to see other rain measurements)
** Current wind speed in m/s (hover to see current wind gust speed)